User: anonymous   Login
Location: Unspecified
(0.0000°N, 0.0000°E)
Time: 13:55:28
(UTC+01:00)
Language:

Cosmos 1943 Rocket - Orbit

View from above orbital plane
View from above orbital plane
View from above satellite
View from above satellite

Ground track
Ground track

The orbit data is extracted from the following two-line orbital elements,

1 19120U 88039B   16044.14711856 -.00000073  00000-0 -11615-4 0  9999
2 19120  71.0143 280.3265 0023508 223.7165 136.2099 14.19136016436860
Epoch (UTC): 13 February 2016 03:31:51
Eccentricity: 0.0023508
inclination: 71.0143°
perigee height: 811 km
apogee height: 845 km
right ascension of ascending node: 280.3265°
argument of perigee: 223.7165°
revolutions per day: 14.19136016
mean anomaly at epoch: 136.2099°
orbit number at epoch: 43686

The dashed part of the orbit path shows where the satellite is in the earth's shadow,  

DLR